Regional Weather Roundup
Issued by NWS Bismarck, ND

Home | Current Version | Previous Version | Text Only | Print | Product List | Glossary On
Versions: 1 2 3 4 5 6 7 8 9 10 11 12 13 14 15 16 17 18 19 20 21 22 23 24 25 26 27 28 29 30 31 32 33 34 35 36 37 38 39 40 41 42 43 44 45 46 47 48 49 50
000
ASUS43 KBIS 260520
RWRBIS

NWR BROADCAST TEXT
NATIONAL WEATHER SERVICE BISMARCK ND
1200 AM CDT SUN APR 26 2015

NOTE: "FAIR" INDICATES FEW OR NO CLOUDS BELOW 12,000 FEET WITH NO
SIGNIFICANT WEATHER AND/OR OBSTRUCTIONS TO VISIBILITY.


CITY           SKY/WX    TMP DP  RH WIND       PRES   REMARKS
WILLISTON      CLOUDY    46  44  93 SW9       29.85R
MINOT          CLOUDY    48  41  76 SE12      29.89F
MINOT AFB      CLOUDY    48  46  93 SE14      29.88F
BISMARCK       CLOUDY    48  43  82 SE8       29.93R
DICKINSON      LGT RAIN  44  42  93 W10       29.87R
GARRISON         N/A     46  43  89 SE9       29.89S
HETTINGER ARPT LGT RAIN  45  43  93 W8        29.91R
JAMESTOWN      CLOUDY    48  40  73 S3        29.95S
BEACH          CLOUDY    41  41 100 W7        29.91R
CARRINGTON     MOCLDY    46  45  93 S8        29.97R
CROSBY         CLOUDY    46  46 100 S15       29.84R
HARVEY           N/A    N/A N/A N/A MISG        N/A
HAZEN          CLOUDY    46  43  87 SE9       29.90S
LINTON         MOCLDY    46  46 100 SE12      29.93R
MANDAN         CLOUDY    46  43  87 SE9       29.93S
OAKES            N/A     48  45  87 E8        29.96S
STANLEY        CLOUDY    46  46 100 S15G22    29.86F
TIOGA          MOCLDY    46  46 100 S10       29.87S
WATFORD CITY   CLOUDY    45  45 100 SW8       29.85R
$$

CITY           SKY/WX    TMP DP  RH WIND       PRES   REMARKS
GRAND FORKS    CLEAR     46  33  60 SE9       29.98R
GRAND FORKS AF CLEAR     37  32  81 SE1       29.98R
DEVILS LAKE    CLOUDY    46  39  76 SE5       29.96S
FARGO          CLEAR     47  30  51 SE8       29.98R
CANDO          CLOUDY    48  41  76 S7        29.97R
CAVALIER       FAIR      46  32  57 CALM      29.99R
GRAFTON        FAIR      45  32  61 S6        30.00R
GWINNER        CLEAR     43  43 100 SW3       29.98R
LANGDON        FAIR      36  30  80 SE6       29.98S
ROLLA          CLOUDY    48  39  71 S8        29.96R
WALHALLA       FAIR      50  32  50 E8        29.99R
$$

CITY           SKY/WX    TMP DP  RH WIND       PRES   REMARKS
ABERDEEN       CLOUDY    51  42  71 E6        29.95R
MOBRIDGE       CLOUDY    51  42  71 E14       29.89R
BUFFALO          N/A     43  41  93 NW3       29.85R
RAPID CITY     CLOUDY    46  43  89 N14       29.87R
SIDNEY         CLOUDY    45  39  81 SW5       29.89R
WOLF POINT     CLEAR     39  36  89 W9        29.89R
GLENDIVE       CLEAR     36  34  93 W8        29.91R
MILES CITY     CLOUDY    46  42  86 S5        29.90S
BAKER          MOCLDY    38  37  97 W7        29.91R
$$

CITY           SKY/WX    TMP DP  RH WIND       PRES   REMARKS
BILLINGS       CLOUDY    44  36  73 SE6       29.89R
GREAT FALLS    CLOUDY    39  28  64 NE16      29.94R
REGINA         LGT RAIN  46  46 100 SE17G24   29.77S
ESTEVAN        LGT RAIN  46  45  93 SE15G23   29.84R
$$



USA.gov is the U.S. government's official web portal to all federal, state and local government web resources and services.